Location: Poughquag
(41.6090°N, 73.6820°W)
Time: 23:37:55
(UTC-05:00)

Tiros 1 despin weight - Pass Details

Date: 11 December 2023
Orbit: 581 x 624 km, 48.2° (Epoch: 21 February)

Event Time Altitude Azimuth Distance (km) Brightness Sun altitude
Rises 18:27:30 0° 288° (WNW) 2,808 ? -22.2°
Reaches altitude 10° 18:29:57 10° 298° (WNW) 1,903 ? -22.6°
Enters shadow 18:33:34 34° 352° (N) 976 ? -23.3°
